Weather History for KWAL - October, 2013

Change the Weather History Date:

Friday, October 4, 2013

  Actual Average Record
Temperature  
Mean Temperature 77 °F 63 °F  
Max Temperature 88 °F 72 °F 89 °F (1986)
Min Temperature 65 °F 55 °F 35 °F (1974)
Degree Days  
Heating Degree Days 0    
Month to date heating degree days 0  
Since 1 July heating degree days 22  
Cooling Degree Days 12    
Month to date cooling degree days 35  
Year to date cooling degree days 1463  
Growing Degree Days 26 (Base 50)    
Moisture  
Dew Point 64 °F    
Average Humidity 67    
Maximum Humidity 93    
Minimum Humidity 40    
Precipitation  
Precipitation 0.00 in 0.11 in 1.85 in ()
Month to date precipitation 0.00 0.41  
Year to date precipitation 30.66 31.78  
Sea Level Pressure  
Sea Level Pressure 30.06 in    
Wind  
Wind Speed 5 mph (WSW)    
Max Wind Speed 14 mph    
Max Gust Speed 17 mph    
Visibility 9 miles    
Events      
T = Trace of Precipitation, MM = Missing Value Source: NWS Daily Summary

Daily Weather History Graph

Daily Weather History Graph

Search for Another Location

Airport or City:

Trip Planner

Search our weather history database for the weather conditions in past years. The results will help you decide how hot, cold, wet, or windy it might be!

Date:

Astronomy

Oct. 04, 2013 Rise Set
Actual Time 7:00 AM EDT 6:39 PM EDT
Civil Twilight 6:34 AM EDT 7:06 PM EDT
Nautical Twilight 6:03 AM EDT 7:36 PM EDT
Astronomical Twilight 5:33 AM EDT 8:07 PM EDT
Moon 6:33 AM EDT (10/4) 6:21 PM EDT (10/4)
Length of Visible Light 12h 32m
Length of Day
11h 39m
Waning Crescent, 0% of the Moon is Illuminated
Oct 4
Waning Crescent
Oct 4
New
Oct 11
First Quarter
Oct 18
Full
Oct 26
Last Quarter

Hourly Weather History & Observations

Time (EDT) Temp. Heat Index Dew Point Humidity Pressure Visibility Wind Dir Wind Speed Gust Speed Precip Events Conditions
12:54 AM 70.0 °F - 66.0 °F 87% 30.07 in 8.0 mi SW 8.1 mph - N/A   Clear
1:54 AM 68.0 °F - 64.9 °F 90% 30.07 in 8.0 mi SW 5.8 mph - N/A   Clear
2:54 AM 66.9 °F - 64.0 °F 90% 30.06 in 8.0 mi WSW 3.5 mph - N/A   Clear
3:54 AM 66.9 °F - 64.0 °F 90% 30.06 in 8.0 mi SW 4.6 mph - N/A   Scattered Clouds
4:54 AM 68.0 °F - 64.0 °F 87% 30.06 in 9.0 mi WSW 3.5 mph - N/A   Mostly Cloudy
5:54 AM 69.1 °F - 64.0 °F 84% 30.07 in 9.0 mi WSW 4.6 mph - N/A   Clear
6:54 AM 64.9 °F - 63.0 °F 93% 30.08 in 6.0 mi SSW 3.5 mph - N/A   Clear
7:54 AM 68.0 °F - 64.0 °F 87% 30.08 in 5.0 mi Calm Calm - N/A   Clear
8:54 AM 73.0 °F - 66.9 °F 81% 30.09 in 8.0 mi WSW 4.6 mph - N/A   Partly Cloudy
9:54 AM 78.1 °F - 66.0 °F 66% 30.09 in 10.0 mi West 6.9 mph - N/A   Partly Cloudy
10:54 AM 81.0 °F 83.0 °F 66.0 °F 60% 30.08 in 10.0 mi Variable 4.6 mph - N/A   Partly Cloudy
11:54 AM 84.0 °F 85.8 °F 64.9 °F 53% 30.08 in 10.0 mi West 8.1 mph - N/A   Partly Cloudy
12:54 PM 86.0 °F 87.3 °F 64.0 °F 48% 30.06 in 10.0 mi Variable 3.5 mph - N/A   Clear
1:54 PM 86.0 °F 86.3 °F 62.1 °F 44% 30.04 in 10.0 mi Calm Calm - N/A   Clear
2:54 PM 82.9 °F 85.4 °F 66.9 °F 58% 30.03 in 10.0 mi SSW 13.8 mph - N/A   Clear
3:54 PM 87.1 °F 87.0 °F 61.0 °F 41% 30.02 in 10.0 mi WNW 8.1 mph - N/A   Clear
4:54 PM 84.9 °F 85.0 °F 61.0 °F 44% 30.02 in 10.0 mi West 8.1 mph - N/A   Clear
5:54 PM 82.0 °F 83.4 °F 64.0 °F 54% 30.03 in 10.0 mi West 5.8 mph - N/A   Clear
6:54 PM 77.0 °F - 63.0 °F 62% 30.03 in 10.0 mi West 4.6 mph - N/A   Clear
7:54 PM 73.9 °F - 64.0 °F 71% 30.04 in 10.0 mi SSW 3.5 mph - N/A   Clear
8:54 PM 72.0 °F - 66.0 °F 81% 30.05 in 10.0 mi SW 4.6 mph - N/A   Clear
9:54 PM 71.1 °F - 64.0 °F 78% 30.06 in 10.0 mi SW 4.6 mph - N/A   Clear
10:54 PM 70.0 °F - 64.0 °F 81% 30.06 in 10.0 mi SW 4.6 mph - N/A   Clear
11:54 PM 71.1 °F - 66.0 °F 84% 30.06 in 10.0 mi SW 3.5 mph - N/A   Clear